Back to catalog

TOMORROW-S7

AliveScienceVLEO
NORAD 63631·PAYLOAD·🇺🇸 United States

Launched Apr 22, 2025 from Cape Canaveral Space Force Station

Loading…

Next Passes (next 24 hours)

TLE

FreshSource: Space-Track

Epoch: Sep 14, 2026, 23:29 UTC

1 63631U 25081B   26257.97892231  .00001544  00000-0  14107-3 0  9998
2 63631  45.3907 229.4919 0002154 358.7593   1.3280 14.99860421 76659

Track TOMORROW-S7 in real time with AllMySat

Download on the App Store